Location: Gebenbach
(49.5378°N, 11.8735°E)
Time: 12:11:51
(UTC+00:00)

SAR-Lupe-4 - Pass Details

Date: 29 October 2020
Orbit: 481 x 484 km, 98.2° (Epoch: 22 November)

Event Time Altitude Azimuth Distance (km) Brightness Sun altitude
Rises 17:03:10 0° 17° (NNE) 2,557 7.0 -11.6°
Reaches altitude 10° 17:05:16 10° 21° (NNE) 1,672 6.0 -11.9°
Maximum altitude 17:08:49 60° 102° (ESE) 559 3.5 -12.5°
Drops below altitude 10° 17:12:20 10° 183° (S) 1,657 6.4 -13.0°
Sets 17:14:24 0° 187° (S) 2,532 7.4 -13.4°
